GFSNE_850_dewp_075.txt.gz
Dewpoint
5 5 6 3 6 8 8 7 8 8 7 6 6 7 8 7 6 5 4 3 4 4 4 3 2 2 2 1 -2 -1 -1 -2 -2 -2 -2 -2 -3 -4
5 7 6 6 7 7 7 6 8 8 8 7 7 7 7 6 6 5 5 4 3 3 2 2 2 2 1 -4 -9 -7 -7 -8 -9 -10 -11 -13 -13 -13
6 7 7 7 7 8 8 8 8 8 7 6 6 7 7 6 6 6 4 3 3 3 2 2 1 -0 -8 -14 -16 -19 -21 -24 -26 -28 -31 -33 -34 -34
7 8 7 6 6 7 8 8 8 8 7 5 6 7 7 6 6 4 4 3 3 2 1 1 -2 -15 -19 -25 -31 -35 -36 -36 -35 -34 -33 -34 -33 -34
7 7 7 7 7 6 8 8 7 7 6 5 6 6 6 5 4 4 4 3 2 1 -1 -4 -14 -23 -32 -36 -34 -33 -31 -30 -29 -29 -30 -31 -32 -33
7 7 7 6 5 6 7 6 4 5 7 7 6 5 5 4 4 4 3 2 -1 -4 -7 -13 -22 -32 -34 -32 -30 -27 -25 -22 -21 -26 -28 -29 -32 -35
7 7 7 6 3 4 7 6 7 6 6 6 5 5 4 3 3 3 1 -3 -5 -6 -11 -12 -11 -13 -20 -23 -22 -19 -18 -17 -23 -27 -31 -32 -35 -33
5 5 3 3 5 7 8 8 8 8 7 7 5 4 4 3 3 1 -3 -5 -11 -12 -12 -11 -12 -13 -22 -19 -13 -16 -16 -19 -25 -27 -31 -33 -28 -20
3 4 6 8 8 9 8 8 8 7 6 6 5 3 2 1 0 -3 -6 -12 -12 -11 -10 -10 -13 -21 -20 -14 -12 -14 -15 -21 -23 -28 -30 -22 -18 -17
6 8 9 9 9 8 8 7 6 3 2 2 2 1 1 -1 -3 -9 -13 -12 -11 -14 -17 -13 -12 -12 -12 -12 -11 -14 -18 -17 -20 -21 -14 -15 -17 -17
8 9 9 8 7 7 6 5 2 1 1 0 -0 -1 -2 -4 -14 -25 -29 -20 -16 -11 -14 -12 -12 -12 -11 -12 -14 -12 -12 -15 -15 -13 -11 -12 -11 -12
8 7 6 5 4 4 2 1 1 0 -1 -1 -2 -4 -14 -29 -35 -36 -35 -23 -16 -12 -13 -12 -12 -12 -12 -13 -13 -12 -14 -12 -16 -11 -9 -9 -9 -9
6 5 3 1 1 -0 -1 -1 -1 -2 -3 -5 -9 -27 -30 -30 -32 -30 -27 -25 -22 -16 -13 -14 -14 -13 -13 -13 -13 -14 -16 -13 -10 -9 -10 -8 -9 -8
4 1 -0 -1 -1 -1 -2 -3 -5 -8 -14 -27 -31 -27 -19 -16 -17 -16 -14 -12 -14 -19 -24 -18 -15 -16 -15 -16 -15 -15 -14 -13 -12 -11 -10 -7 -8 -8
0 -1 -2 -2 -2 -2 -3 -6 -13 -27 -33 -29 -24 -19 -14 -11 -10 -11 -15 -20 -20 -16 -13 -13 -14 -18 -16 -14 -13 -13 -13 -13 -12 -13 -10 -7 -7 -10
-2 -3 -3 -3 -4 -7 -13 -16 -24 -18 -10 -9 -8 -9 -9 -10 -11 -13 -12 -12 -12 -12 -13 -13 -14 -14 -14 -14 -13 -13 -12 -12 -12 -14 -8 -7 -8 -9
-3 -4 -4 -5 -8 -8 -8 -8 -8 -9 -9 -10 -10 -11 -12 -13 -13 -13 -13 -13 -13 -13 -13 -13 -14 -14 -14 -14 -14 -14 -14 -13 -13 -12 -9 -8 -7 -9
-5 -6 -8 -9 -9 -10 -10 -11 -11 -11 -12 -12 -13 -13 -14 -14 -14 -14 -14 -14 -14 -14 -14 -14 -14 -15 -15 -15 -15 -15 -13 -11 -9 -9 -8 -8 -8 -9
-8 -9 -9 -10 -10 -11 -11 -12 -13 -13 -14 -14 -15 -15 -15 -15 -15 -15 -15 -15 -14 -14 -15 -15 -15 -16 -16 -16 -16 -15 -13 -12 -12 -12 -9 -7 -9 -8
-9 -10 -11 -11 -12 -13 -13 -14 -14 -14 -15 -15 -16 -16 -16 -16 -16 -16 -16 -16 -16 -16 -16 -17 -17 -16 -14 -14 -15 -17 -20 -19 -16 -12 -11 -8 -8 -8
-12 -12 -13 -13 -14 -14 -15 -15 -16 -16 -16 -17 -17 -17 -17 -17 -17 -17 -17 -17 -17 -17 -17 -17 -17 -16 -18 -18 -16 -16 -16 -15 -14 -12 -11 -10 -8 -8
-14 -14 -15 -15 -16 -16 -16 -17 -17 -17 -17 -17 -18 -18 -18 -19 -18 -18 -18 -18 -18 -18 -18 -18 -18 -18 -17 -17 -16 -16 -16 -15 -15 -13 -11 -10 -8 -8
-15 -16 -16 -17 -17 -17 -18 -18 -18 -19 -19 -19 -19 -19 -19 -20 -20 -19 -19 -19 -19 -18 -18 -18 -18 -17 -17 -17 -17 -17 -16 -15 -15 -12 -10 -9 -9 -10

GFSNE_850_dewp_078.txt.gz
Dewpoint
5 5 5 5 5 6 6 5 6 7 7 5 6 5 6 6 6 7 7 7 6 6 4 4 3 3 4 3 2 2 2 1 -6 -3 -2 -3 -3 -4
5 5 5 5 5 6 6 4 4 6 8 7 7 7 7 6 5 6 6 6 5 4 4 4 4 3 2 2 2 2 1 -10 -12 -12 -12 -14 -16 -19
5 5 5 4 4 6 6 6 6 6 7 7 7 8 8 6 7 6 5 6 6 5 4 4 3 2 2 1 1 -2 -11 -16 -21 -23 -27 -31 -33 -35
5 6 5 5 4 6 7 6 6 6 6 8 7 8 7 6 6 6 6 6 6 5 4 3 3 2 1 1 -6 -16 -19 -28 -34 -35 -34 -32 -30 -28
7 7 7 7 5 6 8 7 6 5 6 7 7 7 6 6 5 5 6 6 5 4 4 3 3 1 0 -6 -17 -25 -34 -34 -33 -31 -28 -26 -24 -25
6 7 7 7 7 8 8 7 6 6 7 6 6 7 6 6 6 6 6 5 4 3 3 2 -1 -4 -8 -20 -28 -33 -33 -30 -25 -22 -18 -17 -21 -24
7 7 7 7 6 5 6 7 6 7 5 7 6 7 6 6 6 6 5 4 3 2 -1 -3 -6 -7 -14 -18 -21 -26 -24 -20 -18 -16 -15 -18 -23 -25
8 8 8 7 7 6 6 7 7 6 6 7 7 6 7 6 6 5 3 2 1 -1 -2 -3 -8 -12 -13 -14 -16 -19 -17 -15 -14 -14 -14 -19 -23 -28
8 8 7 7 7 7 7 7 7 7 7 7 6 5 4 4 3 2 1 -1 -1 -2 -5 -11 -11 -12 -16 -16 -18 -14 -12 -12 -13 -14 -16 -19 -23 -25
9 8 8 8 7 6 6 8 8 6 7 5 4 4 2 1 1 1 0 -1 -2 -4 -8 -13 -15 -19 -20 -18 -14 -13 -12 -13 -14 -14 -16 -20 -22 -20
8 8 8 8 7 7 8 6 5 4 3 2 1 1 0 -0 -1 -1 -2 -5 -9 -16 -20 -14 -18 -18 -15 -13 -12 -12 -13 -12 -12 -13 -17 -20 -15 -13
8 8 8 8 8 7 6 4 3 2 0 -0 -1 -1 -2 -2 -2 -6 -12 -21 -25 -22 -21 -17 -15 -12 -11 -11 -12 -12 -12 -12 -13 -17 -18 -13 -10 -10
8 8 7 7 6 5 2 1 0 -1 -2 -2 -3 -4 -6 -10 -16 -29 -34 -35 -31 -23 -16 -14 -13 -10 -11 -13 -15 -12 -12 -14 -18 -15 -15 -18 -12 -10
8 6 4 3 1 -0 -1 -2 -2 -2 -3 -4 -6 -10 -15 -21 -22 -11 -7 -9 -11 -9 -8 -10 -13 -18 -18 -14 -11 -12 -14 -18 -18 -19 -20 -19 -14 -10
3 1 -1 -2 -2 -2 -2 -3 -3 -4 -7 -8 -10 -14 -13 -9 -8 -9 -9 -9 -11 -13 -15 -14 -12 -11 -11 -13 -14 -13 -14 -17 -18 -15 -9 -9 -8 -8
-2 -3 -4 -4 -4 -4 -5 -5 -7 -11 -11 -9 -8 -8 -9 -9 -10 -11 -11 -12 -12 -13 -13 -14 -13 -13 -13 -13 -13 -13 -14 -13 -15 -17 -16 -16 -16 -9
-5 -5 -5 -6 -6 -7 -8 -9 -8 -8 -9 -9 -10 -10 -11 -12 -12 -13 -13 -13 -14 -14 -14 -15 -14 -13 -14 -14 -14 -14 -14 -15 -15 -14 -12 -10 -10 -9
-6 -7 -8 -9 -9 -9 -9 -9 -10 -10 -11 -12 -12 -13 -13 -14 -14 -15 -15 -15 -15 -15 -15 -14 -14 -14 -15 -16 -16 -15 -15 -12 -12 -11 -11 -12 -12 -10
-7 -9 -9 -9 -10 -10 -11 -11 -12 -12 -13 -14 -14 -15 -15 -16 -16 -16 -17 -17 -16 -16 -15 -16 -16 -17 -18 -16 -15 -14 -14 -15 -15 -16 -17 -19 -16 -16
-9 -10 -10 -11 -11 -12 -12 -13 -13 -14 -15 -16 -17 -17 -17 -17 -17 -18 -18 -18 -17 -18 -19 -19 -17 -16 -16 -16 -16 -18 -18 -17 -16 -14 -14 -14 -14 -12
-11 -11 -12 -12 -13 -13 -14 -15 -16 -16 -17 -17 -17 -17 -18 -19 -19 -19 -19 -19 -19 -19 -19 -19 -19 -20 -20 -20 -21 -20 -19 -17 -15 -14 -14 -14 -14 -13
-13 -13 -13 -14 -14 -15 -17 -18 -17 -18 -17 -18 -18 -19 -19 -19 -19 -19 -20 -20 -20 -20 -19 -21 -21 -20 -19 -18 -17 -18 -19 -20 -19 -18 -15 -14 -13 -12
-14 -15 -17 -19 -19 -19 -20 -20 -20 -20 -20 -20 -19 -19 -20 -20 -20 -20 -20 -20 -20 -20 -21 -20 -20 -20 -21 -20 -19 -19 -19 -19 -18 -16 -16 -13 -11 -10

GFSNE_850_dewp_084.txt.gz
Dewpoint
4 5 6 6 6 5 6 5 5 4 5 4 5 5 4 4 3 4 4 5 4 4 5 6 7 6 7 7 6 4 5 5 4 3 2 2 2 2
4 3 5 6 6 4 5 4 4 5 6 5 5 5 5 5 5 5 5 5 6 6 5 6 6 7 7 7 6 6 5 4 4 2 3 2 2 1
2 2 3 5 5 4 5 5 4 5 6 5 5 5 5 4 5 6 6 6 6 6 6 5 7 6 6 7 6 5 5 4 2 3 2 2 1 -2
3 2 2 2 4 5 5 5 5 4 5 5 5 5 5 4 5 6 5 6 7 7 7 7 7 6 5 6 6 5 3 3 3 2 2 1 -6 -15
4 3 3 2 3 3 3 4 5 5 5 5 5 5 5 5 5 6 6 6 7 7 6 6 7 7 6 5 5 4 3 3 2 1 -1 -8 -15 -25
1 0 2 2 2 2 2 2 3 5 5 6 5 5 6 6 7 6 7 6 6 6 5 6 7 6 5 4 4 2 2 1 1 -6 -20 -25 -28 -27
7 6 3 1 2 2 3 3 4 4 4 5 5 7 8 8 7 5 6 7 7 7 6 6 6 6 5 3 2 1 0 1 -1 -7 -10 -14 -22 -18
8 8 7 6 5 5 5 6 5 5 5 6 7 7 8 7 7 7 7 7 7 7 6 5 5 4 3 2 1 1 -0 -1 -4 -10 -16 -19 -19 -15
8 8 8 7 7 7 7 7 7 7 7 7 8 7 8 8 8 8 7 7 7 6 5 4 2 2 1 1 -0 -1 -2 -4 -7 -12 -17 -16 -14 -12
9 8 8 8 8 8 8 8 7 7 7 8 8 8 8 8 7 7 7 6 5 4 2 1 0 -0 -1 -1 -2 -4 -5 -6 -9 -14 -14 -13 -10 -8
9 8 8 8 8 7 7 7 8 8 8 8 8 8 8 8 7 6 5 4 2 -0 -1 -1 -2 -2 -3 -4 -5 -7 -9 -12 -13 -11 -10 -11 -11 -11
10 9 9 9 8 8 8 8 8 8 8 8 7 7 6 6 5 3 2 2 1 -2 -3 -3 -3 -4 -6 -7 -8 -8 -9 -7 -7 -10 -11 -11 -12 -12
10 10 9 9 9 9 8 8 8 7 5 2 0 -0 -0 -1 -1 -2 -2 -2 -2 -3 -5 -5 -6 -7 -7 -7 -9 -9 -9 -9 -9 -10 -11 -12 -13 -13
9 9 9 8 8 8 8 7 7 4 1 -2 -3 -3 -4 -3 -3 -4 -5 -4 -5 -5 -6 -7 -7 -8 -8 -9 -11 -12 -12 -12 -12 -13 -14 -15 -15 -13
8 5 2 2 1 1 -1 -2 -2 -4 -4 -4 -4 -5 -5 -6 -5 -6 -7 -8 -8 -8 -8 -8 -9 -10 -11 -11 -12 -13 -13 -14 -14 -15 -15 -16 -17 -16
-3 -1 -1 -3 -4 -6 -6 -5 -5 -5 -5 -5 -6 -7 -7 -8 -8 -8 -8 -8 -9 -9 -9 -10 -11 -12 -14 -14 -14 -14 -13 -13 -14 -14 -15 -16 -17 -16
-4 -5 -5 -5 -5 -5 -5 -5 -6 -6 -7 -8 -8 -9 -9 -9 -9 -10 -10 -10 -11 -13 -14 -16 -16 -17 -16 -16 -16 -17 -17 -17 -17 -16 -16 -16 -17 -16
-5 -5 -6 -7 -6 -7 -7 -7 -8 -8 -9 -9 -9 -10 -10 -11 -11 -13 -16 -19 -22 -22 -23 -24 -25 -26 -25 -25 -19 -18 -18 -19 -20 -21 -21 -21 -21 -21
-6 -8 -9 -9 -9 -9 -9 -9 -10 -10 -10 -11 -11 -11 -13 -17 -21 -24 -25 -26 -25 -24 -24 -23 -22 -22 -21 -22 -24 -25 -23 -23 -21 -20 -20 -20 -21 -21
-8 -9 -10 -10 -11 -12 -12 -12 -12 -12 -12 -13 -17 -21 -23 -24 -25 -25 -24 -23 -23 -23 -23 -23 -22 -22 -20 -19 -19 -23 -23 -23 -23 -22 -22 -22 -22 -21
-11 -11 -12 -12 -12 -12 -13 -13 -15 -18 -21 -21 -22 -23 -24 -24 -24 -24 -24 -24 -24 -24 -23 -23 -23 -22 -22 -23 -23 -24 -24 -23 -22 -19 -19 -17 -18 -18
-12 -13 -13 -13 -14 -15 -17 -19 -21 -21 -21 -22 -24 -24 -25 -25 -26 -25 -25 -24 -23 -24 -23 -23 -23 -24 -23 -23 -23 -23 -23 -23 -23 -22 -20 -18 -17 -16
-14 -15 -18 -21 -21 -21 -22 -23 -24 -25 -25 -24 -25 -27 -27 -27 -26 -26 -25 -24 -24 -23 -23 -23 -23 -23 -23 -22 -22 -22 -22 -21 -20 -19 -19 -18 -16 -16

GFSNE_850_dewp_087.txt.gz
Dewpoint
4 4 4 3 3 3 4 4 5 6 6 4 4 4 4 4 5 4 4 4 4 4 5 5 5 5 5 6 7 7 5 6 6 6 6 6 5 5
6 5 5 4 3 3 5 5 5 6 7 5 4 4 4 4 5 5 5 5 5 5 5 6 6 6 6 6 6 6 6 6 6 6 6 5 5 5
6 6 5 4 4 4 4 6 7 6 5 5 5 5 4 4 4 4 5 5 5 5 5 5 5 6 7 6 6 7 7 6 5 6 5 6 6 4
6 6 5 5 5 3 2 3 6 5 4 4 4 4 4 4 4 5 5 5 5 5 5 5 5 6 7 7 7 7 6 5 6 6 5 5 4 2
6 6 6 5 4 4 2 2 3 4 4 5 5 5 5 5 5 5 5 4 4 5 5 6 6 5 7 6 7 7 7 6 6 5 5 4 2 2
4 4 4 5 4 3 3 2 3 4 4 6 6 5 5 4 6 6 5 4 3 5 5 5 6 6 7 6 6 6 6 6 5 4 3 2 1 0
5 5 5 5 4 3 4 3 3 4 5 6 6 6 7 7 5 4 6 5 5 6 6 6 6 7 6 7 6 6 5 4 4 3 2 2 1 -3
8 8 8 8 8 7 7 7 5 5 5 5 6 7 7 7 7 6 7 7 7 7 7 7 7 7 7 7 6 4 3 3 1 0 0 -1 -1 -4
8 8 8 8 8 8 8 8 8 7 6 6 6 6 7 7 7 7 7 7 7 7 7 7 6 6 6 5 3 2 2 1 -0 -1 -1 -3 -5 -6
9 9 9 8 8 8 9 8 8 8 8 8 7 7 7 7 7 7 7 7 7 7 6 4 4 4 2 2 1 -0 -1 -2 -2 -3 -4 -5 -6 -7
10 9 9 9 9 8 8 7 8 8 8 8 8 8 7 8 8 8 7 7 6 4 4 2 1 -0 -2 -2 -2 -3 -3 -4 -5 -6 -6 -7 -7 -9
10 10 10 9 9 9 9 9 8 9 9 8 8 8 7 7 7 7 6 4 4 1 -1 -2 -3 -3 -4 -5 -5 -5 -5 -6 -7 -7 -8 -8 -7 -8
10 9 8 9 9 9 9 9 8 8 8 7 6 3 1 1 1 0 -0 0 0 -1 -4 -4 -4 -5 -5 -6 -6 -7 -7 -8 -8 -8 -8 -8 -9 -10
7 8 8 8 8 8 7 8 7 6 5 2 -1 -3 -3 -3 -4 -4 -4 -4 -4 -4 -5 -5 -5 -6 -7 -8 -8 -8 -8 -8 -8 -9 -9 -10 -10 -12
5 3 -2 2 4 5 3 -0 -3 -3 -3 -4 -4 -5 -5 -6 -6 -5 -5 -6 -6 -7 -7 -7 -8 -8 -9 -9 -10 -11 -11 -11 -12 -12 -13 -14 -16 -17
-1 -3 -2 -3 -2 -4 -4 -4 -4 -4 -4 -4 -5 -6 -6 -6 -6 -7 -7 -7 -8 -8 -9 -9 -9 -10 -10 -12 -14 -15 -15 -16 -16 -18 -19 -21 -22 -23
-4 -4 -5 -5 -6 -6 -7 -6 -6 -7 -7 -8 -8 -9 -8 -9 -8 -9 -9 -9 -10 -11 -11 -12 -17 -19 -22 -24 -24 -24 -23 -22 -22 -23 -25 -26 -27 -28
-5 -6 -7 -7 -7 -8 -8 -9 -8 -9 -9 -9 -10 -10 -10 -10 -10 -10 -12 -19 -26 -28 -28 -29 -31 -31 -30 -27 -24 -24 -27 -27 -27 -27 -27 -26 -26 -27
-7 -8 -9 -9 -9 -10 -10 -10 -11 -11 -11 -10 -10 -10 -11 -17 -29 -31 -30 -29 -29 -28 -28 -28 -27 -28 -27 -27 -29 -26 -25 -26 -25 -25 -24 -24 -23 -23
-9 -9 -10 -10 -10 -11 -11 -11 -11 -11 -12 -15 -22 -25 -27 -28 -29 -29 -28 -28 -27 -26 -26 -26 -26 -26 -25 -25 -25 -28 -25 -24 -24 -24 -24 -24 -23 -23
-10 -11 -11 -11 -11 -12 -12 -13 -18 -25 -26 -27 -27 -28 -29 -28 -28 -27 -27 -27 -27 -26 -26 -26 -25 -25 -24 -24 -24 -25 -25 -24 -23 -22 -22 -22 -22 -20
-12 -12 -13 -13 -14 -18 -22 -23 -25 -26 -26 -27 -27 -27 -28 -27 -27 -26 -26 -26 -26 -25 -25 -24 -24 -24 -24 -23 -24 -24 -24 -25 -22 -21 -20 -19 -17 -17
-19 -23 -25 -25 -26 -25 -25 -26 -26 -26 -27 -27 -27 -27 -27 -26 -26 -25 -25 -25 -25 -24 -24 -24 -24 -24 -24 -23 -23 -23 -23 -21 -19 -19 -20 -16 -13 -14

GFSNE_850_dewp_093.txt.gz
Dewpoint
-1 5 5 4 2 6 6 6 6 5 5 4 3 3 4 4 5 4 4 4 4 4 4 4 4 5 5 5 4 4 4 5 6 6 6 6 6 6
4 2 1 3 3 5 6 6 5 6 5 5 4 3 3 4 4 6 5 5 5 5 5 4 4 5 5 5 5 4 5 5 5 5 6 6 7 7
5 6 6 3 4 7 6 7 5 6 6 5 5 4 5 4 3 5 5 6 5 5 5 5 5 4 5 5 5 5 5 5 5 5 6 6 6 7
5 4 5 5 5 7 7 7 7 5 5 5 4 4 4 3 3 4 4 5 5 6 3 4 4 4 4 4 4 4 5 5 5 6 6 6 6 7
8 8 7 7 7 7 7 7 6 5 6 5 6 6 6 5 4 3 4 3 3 3 2 2 2 2 3 4 4 3 4 5 5 5 6 7 7 7
7 7 6 6 6 7 7 7 7 7 7 7 7 7 7 6 7 7 7 6 5 3 2 1 1 1 2 3 4 5 5 5 5 5 7 7 7 7
8 7 7 7 7 7 7 7 7 8 8 8 8 7 7 7 7 7 7 6 5 5 5 6 5 5 4 5 5 5 5 6 6 7 7 7 6 7
7 7 7 7 7 7 8 8 8 8 7 7 7 7 7 6 7 7 7 7 7 7 7 7 6 6 6 6 6 6 6 6 6 7 7 7 7 7
9 9 8 8 8 8 8 8 8 8 8 8 8 7 7 7 7 7 7 7 7 7 7 7 7 6 6 6 6 6 6 6 6 6 6 5 3 3
9 9 9 9 9 9 9 9 9 9 9 9 8 8 7 7 7 7 7 6 7 6 6 6 6 6 6 5 5 5 5 5 5 4 2 1 0 -0
8 8 8 8 8 8 8 8 8 8 8 8 7 7 6 6 7 7 6 6 6 5 5 5 4 2 1 -0 -1 -3 -2 -2 -2 -2 -3 -4 -5 -5
7 7 7 7 7 7 7 7 7 6 6 6 6 6 5 5 5 4 4 4 4 3 1 0 -0 -2 -4 -5 -5 -5 -5 -5 -5 -5 -5 -5 -5 -5
5 6 5 5 6 6 6 7 6 6 5 4 4 3 2 2 1 1 1 1 1 0 -1 -2 -3 -4 -4 -7 -7 -7 -6 -6 -6 -6 -7 -7 -7 -7
2 2 1 1 1 2 2 2 3 3 2 1 -1 -1 -2 -3 -4 -3 -3 -3 -3 -4 -5 -5 -5 -6 -6 -8 -9 -9 -9 -8 -8 -8 -8 -8 -8 -8
-2 -2 -3 -3 -2 -2 -3 -3 -2 -2 -2 -3 -4 -5 -6 -6 -7 -7 -7 -7 -6 -7 -7 -7 -7 -7 -7 -8 -8 -9 -9 -9 -9 -9 -10 -16 -25 -30
-5 -5 -5 -5 -5 -5 -5 -5 -5 -5 -6 -6 -7 -8 -8 -7 -7 -7 -7 -7 -7 -7 -8 -8 -8 -8 -9 -9 -10 -12 -18 -28 -31 -33 -34 -35 -35 -34
-6 -7 -7 -7 -7 -7 -8 -8 -8 -8 -8 -8 -8 -8 -8 -8 -8 -9 -9 -9 -10 -14 -19 -22 -24 -27 -31 -31 -29 -29 -31 -32 -32 -31 -30 -30 -31 -30
-8 -8 -8 -9 -9 -9 -9 -9 -9 -9 -9 -9 -9 -9 -9 -10 -12 -17 -26 -30 -32 -32 -32 -31 -31 -31 -31 -31 -31 -31 -29 -29 -28 -28 -27 -27 -30 -29
-9 -9 -9 -10 -10 -10 -10 -11 -11 -11 -13 -15 -20 -27 -31 -32 -32 -32 -32 -31 -30 -30 -30 -31 -30 -30 -23 -21 -28 -27 -26 -26 -27 -27 -24 -24 -23 -25
-10 -10 -10 -11 -11 -12 -13 -16 -19 -24 -29 -31 -32 -32 -32 -31 -30 -30 -29 -27 -26 -27 -27 -28 -28 -27 -25 -24 -25 -26 -26 -26 -25 -23 -21 -21 -22 -21
-11 -12 -15 -20 -25 -28 -28 -29 -29 -30 -30 -30 -31 -30 -30 -30 -29 -29 -29 -29 -28 -26 -25 -26 -26 -25 -25 -24 -21 -24 -26 -23 -21 -19 -19 -18 -17 -16
-28 -29 -29 -28 -28 -28 -28 -28 -29 -29 -29 -29 -29 -29 -29 -29 -29 -28 -28 -27 -27 -26 -25 -25 -25 -25 -24 -23 -24 -25 -26 -23 -20 -18 -14 -14 -13 -14
-30 -29 -29 -29 -29 -29 -29 -29 -29 -29 -29 -29 -29 -29 -28 -28 -28 -28 -27 -26 -26 -25 -25 -24 -24 -24 -24 -23 -23 -21 -22 -20 -20 -18 -13 -13 -12 -12